Regional Weather Roundup
Issued by NWS

Home | Current Version | Previous Version | Graphics & Text | Print | Product List | Glossary On
Versions: 1 2 3 4 5 6 7 8 9 10 11 12 13 14 15 16 17 18 19 20 21 22 23 24 25 26 27 28 29 30 31 32 33 34 35 36 37 38 39 40 41 42 43 44 45 46 47 48 49 50
000
ASUS43 KOAX 040602
RWRNE

WEATHER ROUNDUP FOR NEBRASKA
NATIONAL WEATHER SERVICE OMAHA NE
1200 AM CST WED MAR 04 2015

NOTES: SATELLITE DATA IS BEING USED TO AUGMENT CLOUD COVER ABOVE
       12000 FEET.
       "FAIR" INDICATES FEW OR NO CLOUDS BELOW 12,000 FEET WITH NO
       SIGNIFICANT WEATHER AND/OR OBSTRUCTIONS TO VISIBILITY.

  * THESE STATIONS DO NOT REPORT WEATHER SUCH AS RAIN...SNOW OR FOG.

NEZ001>004-019>022-054>056-040700-
NEBRASKA PANHANDLE

CITY           SKY/WX    TMP DP  RH WIND       PRES   REMARKS
SCOTTSBLUFF    CLOUDY    14   7  73 NW8       30.06R WCI   3
6HR MIN TEMP:  14; 6HR MAX TEMP:  19; 6HR PCP: TRACE;

ALLIANCE       MOCLDY    12   6  77 NW9       30.04R WCI   0
6HR MIN TEMP:  12; 6HR MAX TEMP:  18; 6HR PCP: TRACE;

CHADRON        CLEAR      0  -5  79 SW8       30.10R WCI -14
6HR MIN TEMP:   0; 6HR MAX TEMP:  17; 6HR PCP: TRACE;

KIMBALL        LGT SNOW  13  10  86 N6        29.96S WCI   4
SIDNEY         LGT SNOW  14  10  84 N9        30.03R FOG     WCI   2
6HR MIN TEMP:  14; 6HR MAX TEMP:  21; 6HR PCP:  0.05;

$$

NEZ057>060-069>072-079>082-040700-
SOUTHWEST NEBRASKA

CITY           SKY/WX    TMP DP  RH WIND       PRES   REMARKS
NORTH PLATTE   CLOUDY    16  12  84 NE6       30.11F WCI   7
6HR MIN TEMP:  16; 6HR MAX TEMP:  24; 6HR PCP:  0.01;

IMPERIAL       SNOW      17  13  84 NE7       30.07R VSB 1/2 WCI   8
6HR MIN TEMP:  17; 6HR MAX TEMP:  26; 6HR PCP:  0.01;

LEXINGTON      LGT SNOW  18  15  89 N5        30.13F WCI  11
MCCOOK         LGT SNOW  20  15  81 NE8       30.10F WCI  10
6HR MIN TEMP:  20; 6HR MAX TEMP:  31; 6HR PCP:  0.01;

$$

NEZ005>010-023>029-035>040-094-040700-
NORTH CENTRAL NEBRASKA

CITY           SKY/WX    TMP DP  RH WIND       PRES   REMARKS
VALENTINE      PTCLDY    11   2  67 W7        30.11R WCI   0
6HR MIN TEMP:  11; 6HR MAX TEMP:  18;

AINSWORTH      MOCLDY    15   2  56 NW9       30.10R WCI   3
BROKEN BOW     CLOUDY    16  10  77 NW6       30.12S WCI   7
6HR MIN TEMP:  16; 6HR MAX TEMP:  24; 6HR PCP: TRACE;

ORD            CLOUDY    17   9  70 W6        30.13S WCI   9
6HR MIN TEMP:  17; 6HR MAX TEMP:  22; 6HR PCP: TRACE;

$$

NEZ041-046>049-061>064-073>077-083>087-040700-
SOUTH CENTRAL NEBRASKA

CITY           SKY/WX    TMP DP  RH WIND       PRES   REMARKS
GRAND ISLAND   LGT SNOW  17  13  84 N12       30.17R FOG     WCI   4
6HR MIN TEMP:  17; 6HR MAX TEMP:  27; 6HR PCP:  0.01;

HASTINGS       LGT SNOW  17  12  80 N14       30.15R WCI   3
6HR MIN TEMP:  17; 6HR MAX TEMP:  29; 6HR PCP: TRACE;

HEBRON         CLOUDY    21   6  51 N12G20    30.16R WCI   9
KEARNEY *      CLOUDY    18  12  79 N7        30.15S VSB 3/4 WCI   8
$$

NEZ011>018-030>034-042>045-040700-
NORTHEAST NEBRASKA

CITY           SKY/WX    TMP DP  RH WIND       PRES   REMARKS
NORFOLK        CLOUDY    18   5  57 W5        30.14R WCI  11
6HR MIN TEMP:  17; 6HR MAX TEMP:  22;

BLAIR          CLOUDY    18   7  60 N13G22    30.13S WCI   5
COLUMBUS *     CLOUDY    18   3  53 NW10      30.17S WCI   6
FREMONT        CLOUDY    19   6  58 N8G17     30.16S WCI   9
TEKAMAH        CLOUDY    19   6  57 N8        30.19R WCI   9
6HR MIN TEMP:  17; 6HR MAX TEMP:  25;

$$

NEZ050>053-065>068-078-088>093-040700-
SOUTHEAST NEBRASKA

CITY           SKY/WX    TMP DP  RH WIND       PRES   REMARKS
LINCOLN        CLOUDY    20   6  55 N15       30.17R WCI   6
6HR MIN TEMP:  18; 6HR MAX TEMP:  30;

OMAHA EPPLEY   CLOUDY    18   6  59 N17G26    30.14R WCI   3
6HR MIN TEMP:  17; 6HR MAX TEMP:  28;

FALLS CITY     CLEAR     20   7  57 N13       30.12R WCI   7
6HR MIN TEMP:  20; 6HR MAX TEMP:  34;

$$

NEZ044-045-051>053-067-040700-
OMAHA AREA

CITY           SKY/WX    TMP DP  RH WIND       PRES   REMARKS
OMAHA EPPLEY   CLOUDY    18   6  59 N17G26    30.14R WCI   3
6HR MIN TEMP:  17; 6HR MAX TEMP:  28;

BLAIR          CLOUDY    18   7  60 N13G22    30.13S WCI   5
FREMONT        CLOUDY    19   6  58 N8G17     30.16S WCI   9
OFFUTT AFB     CLOUDY    18   5  55 N10       30.14R WCI   7
$$


USA.gov is the U.S. government's official web portal to all federal, state and local government web resources and services.